Kazan, Russia

8:20 AM MSK on December 15, 2019 (GMT +0300)
Kazan

Weather History for UWKD - November, 2019

Change the Weather History Date:

Saturday, November 16, 2019

  Actual Average Record
Temperature  
Mean Temperature 30 °F -  
Max Temperature 35 °F - - ()
Min Temperature 24 °F - - ()
Degree Days  
Heating Degree Days 36    
Moisture  
Dew Point 28 °F    
Average Humidity 88    
Maximum Humidity 100    
Minimum Humidity 75    
Precipitation  
Precipitation 0.00 in - - ()
Sea Level Pressure  
Sea Level Pressure 30.56 in    
Wind  
Wind Speed 6 mph ()    
Max Wind Speed 13 mph    
Max Gust Speed -    
Visibility 5.9 miles    
Events      
T = Trace of Precipitation, MM = Missing Value Source: Averaged Metar Reports

Daily Weather History Graph

Daily Weather History Graph

Search for Another Location

Airport or City:

Astronomy

Nov. 16, 2019 Rise Set
Actual Time 7:18 AM MSK 3:35 PM MSK
Civil Twilight 6:36 AM MSK 4:17 PM MSK
Nautical Twilight 5:51 AM MSK 5:02 PM MSK
Astronomical Twilight 5:07 AM MSK 5:46 PM MSK
Moon 6:23 PM MSK (11/16) 11:13 AM MSK (11/16)
Length of Visible Light 9h 40m
Length of Day
8h 17m
Waning Gibbous, 85% of the Moon is Illuminated
Nov 16
Waning Gibbous
Nov 20
Last Quarter
Nov 26
New
Dec 4
First Quarter
Dec 12
Full

Hourly Weather History & Observations

Time (MSK) Temp. Windchill Dew Point Humidity Pressure Visibility Wind Dir Wind Speed Gust Speed Precip Events Conditions
12:00 AM 29 °F - 28 °F 95% 30.64 in 6 mi SE 2.2 mph - -  
12:00 AM 28.4 °F 21.4 °F 26.6 °F 93% 30.60 in - South 6.7 mph - N/A   Clear
12:30 AM 26.6 °F 19.2 °F 24.8 °F 93% 30.60 in - South 6.7 mph - N/A   Clear
1:00 AM 26.6 °F 19.2 °F 24.8 °F 93% 30.60 in - SSE 6.7 mph - N/A   Clear
1:30 AM 26.6 °F 19.2 °F 24.8 °F 93% 30.60 in - South 6.7 mph - N/A   Clear
2:00 AM 26.6 °F 19.2 °F 24.8 °F 93% 30.60 in - South 6.7 mph - N/A   Clear
2:30 AM 26.6 °F 19.2 °F 24.8 °F 93% 30.60 in - South 6.7 mph - N/A   Clear
3:00 AM 28 °F - 27 °F 94% 30.64 in 6 mi SSE 2.2 mph - -  
3:30 AM 24.8 °F 17.1 °F 23.0 °F 93% 30.60 in - South 6.7 mph - N/A   Clear
4:00 AM 26.6 °F 19.2 °F 23.0 °F 86% 30.60 in - SSW 6.7 mph - N/A   Clear
4:30 AM 26.6 °F 19.2 °F 23.0 °F 86% 30.60 in - SSW 6.7 mph - N/A   Clear
5:00 AM 26.6 °F 21.3 °F 23.0 °F 86% 30.60 in - South 4.5 mph - N/A   Clear
5:30 AM 24.8 °F 19.2 °F 23.0 °F 93% 30.60 in - South 4.5 mph - N/A   Clear
6:00 AM 28 °F - 25 °F 82% 30.64 in 6 mi South 2.2 mph - -  
6:00 AM 24.8 °F 19.2 °F 23.0 °F 93% 30.60 in - SSE 4.5 mph - N/A   Clear
6:30 AM 24.8 °F 19.2 °F 23.0 °F 93% 30.60 in - SSE 4.5 mph - N/A   Clear
7:00 AM 24.8 °F 17.1 °F 23.0 °F 93% 30.60 in - South 6.7 mph - N/A   Clear
7:30 AM 24.8 °F 17.1 °F 23.0 °F 93% 30.60 in - South 6.7 mph - N/A   Clear
8:00 AM 28.4 °F 19.9 °F 24.8 °F 86% 30.60 in 6.2 mi SSW 8.9 mph - N/A   Scattered Clouds
8:30 AM 28.4 °F 19.9 °F 26.6 °F 93% 30.60 in 5.6 mi South 8.9 mph - N/A   Mostly Cloudy
9:00 AM 28 °F - 28 °F 97% 30.62 in 6 mi Calm Calm - -   Overcast
9:00 AM 28.4 °F 19.9 °F 28.4 °F 100% 30.57 in 3.7 mi SSW 8.9 mph - N/A   Overcast
9:30 AM 30.2 °F 23.5 °F 28.4 °F 93% 30.57 in 4.3 mi South 6.7 mph - N/A   Mostly Cloudy
10:00 AM 30.2 °F 23.5 °F 28.4 °F 93% 30.57 in 6.2 mi South 6.7 mph - N/A   Mostly Cloudy
10:30 AM 33.8 °F 26.5 °F 30.2 °F 87% 30.57 in 6.2 mi SSW 8.9 mph - N/A   Partly Cloudy
11:00 AM 35.6 °F 28.7 °F 30.2 °F 81% 30.57 in 6.2 mi SW 8.9 mph - N/A   Scattered Clouds
11:30 AM 35.6 °F 27.7 °F 30.2 °F 81% 30.57 in 6.2 mi WSW 11.2 mph - N/A   Scattered Clouds
12:00 PM 33 °F - 29 °F 81% 30.61 in 6 mi WSW 6.7 mph - -   Overcast
12:00 PM 33.8 °F 24.5 °F 30.2 °F 87% 30.57 in 6.2 mi WSW 13.4 mph - N/A   Scattered Clouds
12:30 PM 33.8 °F 25.4 °F 30.2 °F 87% 30.57 in 6.2 mi WSW 11.2 mph - N/A   Mostly Cloudy
1:00 PM 33.8 °F 24.5 °F 30.2 °F 87% 30.57 in 6.2 mi WSW 13.4 mph - N/A   Mostly Cloudy
1:30 PM 35.6 °F 27.7 °F 30.2 °F 81% 30.57 in 6.2 mi West 11.2 mph - N/A   Mostly Cloudy
2:30 PM 35.6 °F 30.0 °F 32.0 °F 87% 30.54 in 6.2 mi SSW 6.7 mph - N/A   Partly Cloudy
3:00 PM 35 °F - 31 °F 80% 30.58 in 6 mi South 2.2 mph - -   Overcast
3:30 PM 33.8 °F 27.9 °F 30.2 °F 87% 30.54 in 6.2 mi South 6.7 mph - N/A   Partly Cloudy
4:30 PM 35.6 °F 30.0 °F 32.0 °F 87% 30.54 in - SSW 6.7 mph - N/A   Clear
5:30 PM 33.8 °F 26.5 °F 32.0 °F 93% 30.51 in - South 8.9 mph - N/A   Clear
6:00 PM 35 °F - 32 °F 83% 30.54 in 6 mi SE 2.2 mph - -   Clear
6:00 PM 33.8 °F 26.5 °F 32.0 °F 93% 30.51 in - South 8.9 mph - N/A   Clear
6:30 PM 35.6 °F 26.8 °F 32.0 °F 87% 30.48 in - South 13.4 mph - N/A   Clear
7:00 PM 35.6 °F 26.8 °F 32.0 °F 87% 30.48 in - South 13.4 mph - N/A   Clear
7:30 PM 33.8 °F 24.5 °F 32.0 °F 93% 30.48 in - South 13.4 mph - N/A   Clear
8:30 PM 33.8 °F 29.7 °F 30.2 °F 87% 30.45 in - SSE 4.5 mph - N/A   Clear
9:00 PM 33.8 °F 29.7 °F 30.2 °F 87% 30.45 in - SE 4.5 mph - N/A   Clear
9:30 PM 35.6 °F 31.8 °F 30.2 °F 81% 30.45 in - ESE 4.5 mph - N/A   Clear
10:00 PM 33.8 °F 27.9 °F 28.4 °F 81% 30.45 in - SE 6.7 mph - N/A   Clear
11:00 PM 35.6 °F 28.7 °F 28.4 °F 75% 30.45 in - SW 8.9 mph - N/A   Clear
11:30 PM 35.6 °F 26.8 °F 28.4 °F 75% 30.42 in - SSW 13.4 mph - N/A   Clear